DECAYED

THORAD AGENA D DEB, 42493 (Decayed)

Orbit data source: Space-Track

THORAD AGENA D DEB, 42493 was space debris in SSO originally from a launch on Wed, 08 Apr 1970 UTC launched from the Air Force Western Test Range (AFWTR). Debris objects in space refer to the collection of defunct objects orbiting the Earth. Examples of debris include non-operational satellites, rocket bodies, and fragments generated from explosions, collisions, or faulty payload assembly.

Not visible in the next 10 days
Identifier
42493, 1970-025QX
Orbit
Decayed
Country
Flag of USUS
Related business
Manufacturer
Unknown
Mission
Decayed spacecraft
Bus & Motor
Unknown
Mass
Unknown
Launch date (UTC)
1970-04-08 (55 years ago)
Launch vehicle
Unknown
Launch site
Air Force Western Test Range (AFWTR)
Object type
Payload
Rocket body
Debris
Shape & HBR
Unknown
Radar Cross Section
Small (<0.1 m²)

Expand to show TLE details & history
Last TLE update: 1 year ago

TLE from 1 year ago
0 THORAD AGENA D DEB
1 42493U 70025QX  24178.37621620  .00070292  00000-0  60088-2 0  9999
2 42493  99.4603   8.5287 0007605 349.5958 131.2546 14.97280019560572
Epoch: 2024-06-26T09:01Z
TLE epoch observation values (Epoch: 2024-06-26T09:01:45.079Z)
Latitude
57.9096°
Longitude
153.43214°
Altitude
588.515 km
Speed
7.57 km/s
True Right ascension
13h 35m 24s
True Declination
57° 45' 03"
Sunlit
Object was in daylight at epoch
Visualization orbit readout
Latitude
Unknown
Longitude
Unknown
Altitude
Unknown
Speed
Unknown
Apparent Right ascension
Unknown
Apparent Declination
Unknown
Sunlit
N/A
Visualization observer readout
Local Sidereal Time
02:55:48
Azimuth
Unknown
Elevation
Unknown
Doppler factor
Unknown
Orbital elements
Apogee altitude
577.686 km
Perigee altitude
567.114 km
Semi-major axis
6,950.537 km
Eccentricity
0.00076
Inclination
99.4603°
RAAN
8.5287°
Arg. of periapsis
349.5958°
True anomaly
131.32007°
Mean anomaly
131.2546°
Eccentric anomaly
131.28734°
Mean motion
3.74555 °/min
Orbital period
96.11 mins
BSTAR
0.0060088
Loading maneuver chart data...
Computing Atmospheric mass density...

Documentation

Showing up to 5 results
|